EZS49M LFSB-LSGG

Flight info

Callsign EZS49M
Flight time 0h 25m
Altitude 15000
Route OLBEN Z50 ROTOS/N0333F140 Z669 ULMES
Aircraft A319/M-SDE3FGHIRWY/LB1

Departure

Time 2026-05-07 14:09
Airport EuroAirport Basel–Mulhouse–Freiburg (LFSB)

Arrival

Time 2026-05-07 14:35
Airport Geneva International Airport (LSGG)
Time Latitude Longitude Altitude Speed Heading
2026-05-07 13:44 47.59736 7.52941 890 ft 0 kts 322°
2026-05-07 14:01 47.59726 7.52953 890 ft 2 kts 322°
2026-05-07 14:01 47.59714 7.52966 890 ft 2 kts 322°
2026-05-07 14:01 47.59694 7.52985 890 ft 4 kts 335°
2026-05-07 14:02 47.59671 7.53001 890 ft 4 kts 335°
2026-05-07 14:02 47.59649 7.53016 890 ft 4 kts 335°
2026-05-07 14:02 47.59637 7.53024 890 ft 0 kts 335°
2026-05-07 14:05 47.59656 7.53004 890 ft 6 kts 307°
2026-05-07 14:05 47.59650 7.52940 890 ft 7 kts 242°
2026-05-07 14:05 47.59627 7.52874 890 ft 8 kts 244°
2026-05-07 14:05 47.59594 7.52807 890 ft 8 kts 204°
2026-05-07 14:06 47.59540 7.52830 890 ft 8 kts 152°
2026-05-07 14:06 47.59499 7.52860 890 ft 13 kts 154°
2026-05-07 14:06 47.59373 7.52948 890 ft 18 kts 155°
2026-05-07 14:06 47.59286 7.53010 890 ft 22 kts 154°
2026-05-07 14:07 47.59178 7.53139 890 ft 19 kts 85°
2026-05-07 14:07 47.59142 7.53288 890 ft 10 kts 84°
2026-05-07 14:07 47.59165 7.53418 890 ft 19 kts 77°
2026-05-07 14:07 47.59198 7.53631 890 ft 22 kts 77°
2026-05-07 14:08 47.59233 7.53854 890 ft 22 kts 77°
2026-05-07 14:08 47.59209 7.54032 890 ft 16 kts 121°
2026-05-07 14:08 47.59163 7.54049 890 ft 7 kts 248°
2026-05-07 14:08 47.59160 7.54017 890 ft 0 kts 256°
2026-05-07 14:09 47.59149 7.53952 890 ft 35 kts 257°
2026-05-07 14:09 47.59020 7.53124 890 ft 125 kts 257°
2026-05-07 14:09 47.58789 7.51642 1312 ft 151 kts 261°
2026-05-07 14:09 47.58561 7.50148 2227 ft 148 kts 261°
2026-05-07 14:10 47.58331 7.48638 2849 ft 159 kts 260°
2026-05-07 14:10 47.58069 7.46933 3365 ft 180 kts 259°
2026-05-07 14:10 47.57778 7.44970 3767 ft 209 kts 260°
2026-05-07 14:10 47.57473 7.42738 4366 ft 231 kts 260°
2026-05-07 14:11 47.57087 7.40347 5145 ft 246 kts 249°
2026-05-07 14:11 47.56052 7.38247 5926 ft 264 kts 220°
2026-05-07 14:11 47.54333 7.37196 6866 ft 276 kts 187°
2026-05-07 14:11 47.52455 7.37661 7889 ft 284 kts 158°
2026-05-07 14:12 47.50787 7.39272 8963 ft 287 kts 146°
2026-05-07 14:12 47.49199 7.41111 10007 ft 290 kts 144°
2026-05-07 14:12 47.47582 7.43054 10575 ft 310 kts 143°
2026-05-07 14:12 47.45874 7.45102 11050 ft 328 kts 143°
2026-05-07 14:13 47.44073 7.47244 11843 ft 334 kts 143°
2026-05-07 14:13 47.42236 7.49402 12711 ft 339 kts 144°
2026-05-07 14:13 47.40371 7.51566 13574 ft 343 kts 144°
2026-05-07 14:13 47.38472 7.53749 14388 ft 346 kts 144°
2026-05-07 14:14 47.36581 7.55920 15129 ft 350 kts 144°
2026-05-07 14:14 47.34642 7.58138 15861 ft 354 kts 144°
2026-05-07 14:14 47.32673 7.60382 16581 ft 359 kts 144°
2026-05-07 14:14 47.30676 7.62632 17277 ft 363 kts 147°
2026-05-07 14:15 47.28508 7.64566 17972 ft 367 kts 152°
2026-05-07 14:15 47.26271 7.66441 18627 ft 371 kts 152°
2026-05-07 14:15 47.23989 7.68272 18921 ft 373 kts 158°
2026-05-07 14:15 47.21512 7.69221 19004 ft 362 kts 178°
2026-05-07 14:16 47.19086 7.68943 19018 ft 350 kts 196°
2026-05-07 14:16 47.16868 7.67553 19019 ft 345 kts 214°
2026-05-07 14:16 47.15075 7.65247 19019 ft 342 kts 231°
2026-05-07 14:16 47.13594 7.62507 19019 ft 342 kts 233°
2026-05-07 14:17 47.12116 7.59762 19019 ft 342 kts 233°
2026-05-07 14:17 47.10639 7.57031 19018 ft 342 kts 232°
2026-05-07 14:17 47.09155 7.54294 19019 ft 342 kts 232°
2026-05-07 14:17 47.07693 7.51599 19019 ft 342 kts 232°
2026-05-07 14:18 47.06208 7.48863 19005 ft 342 kts 232°
2026-05-07 14:18 47.04720 7.46123 19005 ft 342 kts 232°
2026-05-07 14:18 47.03255 7.43425 19005 ft 342 kts 232°
2026-05-07 14:18 47.01783 7.40720 18806 ft 335 kts 232°
2026-05-07 14:19 47.00336 7.38075 18575 ft 331 kts 232°
2026-05-07 14:19 46.98898 7.35455 18338 ft 329 kts 232°
2026-05-07 14:19 46.97467 7.32848 18074 ft 327 kts 232°
2026-05-07 14:19 46.96037 7.30249 17802 ft 326 kts 232°
2026-05-07 14:20 46.94614 7.27661 17516 ft 325 kts 232°
2026-05-07 14:20 46.93206 7.25093 17257 ft 323 kts 232°
2026-05-07 14:20 46.91823 7.22565 16996 ft 321 kts 232°
2026-05-07 14:20 46.90430 7.20017 16735 ft 320 kts 232°
2026-05-07 14:21 46.89039 7.17479 16497 ft 319 kts 232°
2026-05-07 14:21 46.87647 7.14946 16238 ft 317 kts 231°
2026-05-07 14:21 46.86260 7.12431 15980 ft 316 kts 231°
2026-05-07 14:21 46.84899 7.09963 15729 ft 314 kts 231°
2026-05-07 14:22 46.83527 7.07478 15477 ft 313 kts 231°
2026-05-07 14:22 46.82160 7.05008 15232 ft 312 kts 231°
2026-05-07 14:22 46.80796 7.02548 14943 ft 311 kts 231°
2026-05-07 14:22 46.79436 7.00094 14624 ft 309 kts 231°
2026-05-07 14:23 46.78107 6.97689 14313 ft 307 kts 231°
2026-05-07 14:23 46.76751 6.95231 13995 ft 306 kts 231°
2026-05-07 14:23 46.75433 6.92843 13657 ft 305 kts 231°
2026-05-07 14:23 46.74105 6.90442 13322 ft 303 kts 231°
2026-05-07 14:24 46.72781 6.88052 12972 ft 302 kts 231°
2026-05-07 14:24 46.71464 6.85679 12633 ft 300 kts 231°
2026-05-07 14:24 46.70151 6.83320 12290 ft 299 kts 231°
2026-05-07 14:24 46.68843 6.80975 11953 ft 297 kts 231°
2026-05-07 14:25 46.67543 6.78644 11622 ft 296 kts 231°
2026-05-07 14:25 46.66242 6.76311 11292 ft 295 kts 231°
2026-05-07 14:25 46.64953 6.74039 10979 ft 294 kts 229°
2026-05-07 14:25 46.63606 6.71798 10649 ft 293 kts 228°
2026-05-07 14:26 46.62243 6.69594 10327 ft 292 kts 227°
2026-05-07 14:26 46.60882 6.67413 10008 ft 290 kts 227°
2026-05-07 14:26 46.59535 6.65255 9670 ft 285 kts 227°
2026-05-07 14:26 46.58227 6.63152 9332 ft 281 kts 227°
2026-05-07 14:27 46.56930 6.61057 8988 ft 277 kts 227°
2026-05-07 14:27 46.55647 6.58980 8644 ft 275 kts 228°
2026-05-07 14:27 46.54371 6.56920 8315 ft 273 kts 228°
2026-05-07 14:27 46.53097 6.54862 7986 ft 272 kts 228°
2026-05-07 14:28 46.51834 6.52821 7651 ft 270 kts 228°
2026-05-07 14:28 46.50604 6.50775 7324 ft 265 kts 230°
2026-05-07 14:28 46.49423 6.48787 7004 ft 261 kts 228°
2026-05-07 14:28 46.48214 6.46851 6766 ft 254 kts 227°
2026-05-07 14:29 46.47030 6.44980 6474 ft 249 kts 227°
2026-05-07 14:29 46.45845 6.43177 6166 ft 245 kts 226°
2026-05-07 14:29 46.44651 6.41440 5858 ft 241 kts 226°
2026-05-07 14:29 46.43468 6.39738 5550 ft 237 kts 226°
2026-05-07 14:30 46.42301 6.38059 5250 ft 234 kts 226°
2026-05-07 14:30 46.41164 6.36416 4943 ft 232 kts 226°
2026-05-07 14:30 46.40027 6.34765 4638 ft 230 kts 227°
2026-05-07 14:30 46.38903 6.33127 4332 ft 228 kts 226°
2026-05-07 14:31 46.37806 6.31527 4067 ft 223 kts 227°
2026-05-07 14:31 46.36745 6.29970 4014 ft 211 kts 227°
2026-05-07 14:31 46.35730 6.28472 4018 ft 206 kts 227°
2026-05-07 14:31 46.34732 6.26996 3994 ft 205 kts 227°
2026-05-07 14:32 46.33736 6.25525 3822 ft 204 kts 227°
2026-05-07 14:32 46.32758 6.24080 3566 ft 198 kts 227°
2026-05-07 14:32 46.31807 6.22677 3312 ft 191 kts 227°
2026-05-07 14:32 46.30915 6.21353 3063 ft 178 kts 228°
2026-05-07 14:33 46.30093 6.20118 2871 ft 159 kts 226°
2026-05-07 14:33 46.29353 6.19035 2662 ft 147 kts 228°
2026-05-07 14:33 46.28658 6.17995 2412 ft 141 kts 226°
2026-05-07 14:33 46.27977 6.16998 2189 ft 141 kts 225°
2026-05-07 14:34 46.27288 6.15992 1996 ft 141 kts 225°
2026-05-07 14:34 46.26602 6.14985 1834 ft 141 kts 224°
2026-05-07 14:34 46.25919 6.13971 1627 ft 139 kts 224°
2026-05-07 14:34 46.25230 6.12986 1473 ft 139 kts 224°
2026-05-07 14:35 46.24567 6.12010 1372 ft 125 kts 225°
2026-05-07 14:35 46.24052 6.11255 1376 ft 81 kts 224°
2026-05-07 14:35 46.23729 6.10799 1383 ft 43 kts 212°
2026-05-07 14:35 46.23521 6.10699 1387 ft 7 kts 195°
2026-05-07 14:36 46.23488 6.10686 1387 ft 3 kts 195°
2026-05-07 14:36 46.23476 6.10682 1388 ft 1 kts 195°
2026-05-07 14:36 46.23432 6.10684 1396 ft 11 kts 155°
2026-05-07 14:36 46.23377 6.10760 1397 ft 11 kts 135°
2026-05-07 14:37 46.23341 6.10821 1393 ft 3 kts 66°
2026-05-07 14:37 46.23396 6.10907 1393 ft 7 kts 44°
2026-05-07 14:37 46.23406 6.10921 1393 ft 0 kts 43°
2026-05-07 14:38 46.23410 6.10926 1393 ft 2 kts 43°
2026-05-07 14:38 46.23415 6.10995 1393 ft 10 kts 138°
2026-05-07 14:38 46.23379 6.11042 1399 ft 1 kts 134°
2026-05-07 14:39 46.23370 6.11054 1400 ft 0 kts 134°